Location: Chimay
(50.0486°N, 4.3171°E)
Time: 07:49:53
(UTC+00:00)

Aureole 1 Rocket - Pass Details

Date: 08 August 2020
Orbit: 378 x 1379 km, 73.9° (Epoch: 26 September)

Event Time Altitude Azimuth Distance (km) Brightness Sun altitude
Rises 21:15:11 0° 202° (SSW) 3,650 6.7 -16.0°
Reaches altitude 10° 21:17:30 10° 202° (SSW) 2,835 6.1 -16.3°
Maximum altitude 21:24:23 89° 290° (WNW) 1,221 4.5 -16.9°
Drops below altitude 10° 21:32:47 10° 25° (NNE) 3,410 7.2 -17.7°
Sets 21:35:48 0° 25° (NNE) 4,427 7.9 -18.0°
